Location: Ku?niki
(51.4449°N, 17.8974°E)
Time: 03:36:19
(UTC+00:00)

USA 234 - Pass Details

Date: 18 September 2020
Orbit: 1102 x 1106 km, 123.0° (Epoch: 16 October)

Event Time Altitude Azimuth Distance (km) Brightness Sun altitude
Rises 21:57:40 0° 72° (ENE) 3,924 6.2 -36.3°
Reaches altitude 10° 22:00:11 10° 68° (ENE) 2,966 5.6 -36.4°
Enters shadow 22:03:22 30° 57° (ENE) 1,861 4.5 -36.5°
Exits shadow 22:06:55 57° 340° (NNW) 1,288 3.7 -36.6°
Drops below altitude 10° 22:12:57 10° 276° (W) 2,966 5.6 -36.8°
Sets 22:15:28 0° 273° (W) 3,924 6.3 -36.8°
